[[{"header":{"parameterUnit":"m.s-1","parameterCategory":1,"la1":30.2991,"la2":30.254,"lo1":-89.0895,"lo2":-89.0444,"dy":0.0017,"dx":0.0017,"nx":28,"ny":28,"refTime":"2024-05-20T09:00:00:Z","depth":0,"parameterNumber":2,"parameterNumberName":"U-component_of_WINDS"},"data":[0,0,0,0,0,0,0,0,0,0,0,0,0,0,0,0,0,0,0,0,0,0,0,0,0,0,0,0,0,0,0,0,0,0,0,0,0,0,0,0,0,0,0,0,0,0,0,0,0,0,0,0,0,0,0,0,0,0,0.521,0.521,0,0.519,0.519,0.519,0.5135,0.5134,0.5133,0.5132,0.5112,0.5113,0.5113,0,0,0,0,0,0,0,0,0,0,0,0,0,0.5201,0.5202,0.521,0.521,0.521,0.519,0.519,0.519,0.5136,0.5134,0.5133,0.5131,0.5112,0.5113,0.5113,0,0,0,0,0,0,0,0,0,0,0,0,0,0.5196,0.5202,0.521,0.518,0.5177,0.5191,0.519,0.519,0.5136,0.5134,0.5132,0.5131,0.5112,0.5113,0.5113,0.5154,0,0,0.5116,0.5116,0,0,0,0,0,0,0,0,0.5196,0.5196,0.5185,0.5182,0.5179,0.5163,0.518,0.5178,0.5136,0.5152,0.5132,0.513,0.5131,0.513,0.513,0.5153,0.5153,0.5116,0.5117,0.5117,0.5117,0,0,0,0,0,0,0,0.5197,0.5197,0.5202,0.5185,0.5181,0.5168,0.5165,0.5179,0.5151,0.515,0.5146,0.5145,0.5129,0.5129,0.5129,0.5152,0.5116,0.5117,0.5117,0.5118,0.5209,0.521,0,0,0,0,0,0,0.5201,0.5197,0.5203,0.5202,0.5183,0.517,0.5166,0.517,0.5151,0.5146,0.5146,0.5142,0.5129,0.5128,0.5128,0.5175,0.5117,0.5118,0.5118,0.5207,0.5209,0.5211,0,0,0,0,0,0,0.5201,0.5202,0.5204,0.5198,0.5198,0.5172,0.5176,0.5171,0.5171,0.5148,0.5143,0.5152,0.5127,0.5127,0.5148,0.5174,0.5118,0.5119,0.5205,0.5207,0.521,0.5269,0,0,0,0,0,0,0.5201,0.5202,0.5217,0.5199,0.5198,0.5224,0.5178,0.5172,0.5173,0.5168,0.5152,0.5148,0.5126,0.5147,0.5149,0.5174,0.512,0.5202,0.5206,0.5209,0.5264,0.5273,0.5281,0,0,0,0,0,0.5201,0.5235,0.5218,0.5219,0.5216,0.5225,0.5225,0.5199,0.5175,0.519,0.5175,0.5148,0.5171,0.515,0.5152,0.5177,0.52,0.5205,0.5209,0.5261,0.5271,0.5281,0,0,0,0,0,0,0.5256,0.5232,0.5213,0.5242,0.5236,0.5216,0.5234,0.5211,0.5212,0.5207,0.5175,0.5172,0.5198,0.5189,0.5167,0.5216,0.5181,0.5186,0.522,0.523,0.5238,0.5239,0.512,0,0,0,0,0,0.5272,0.5281,0.5259,0.5287,0.5285,0.526,0.5263,0.5244,0.5237,0.5234,0.5221,0.5215,0.522,0.5225,0.5229,0.5263,0.5259,0.5282,0.529,0.5297,0.5301,0.5319,0.5328,0.5225,0.5225,0.5225,0,0,0.5304,0.5291,0.5299,0.5297,0.5291,0.5301,0.5258,0.5271,0.5279,0.5236,0.5255,0.5245,0.5237,0.5265,0.5277,0.5259,0.5329,0.5302,0.5308,0.5308,0.5324,0.5334,0.5343,0.5228,0.5227,0.5227,0,0,0.5367,0.5359,0.5381,0.5376,0.5366,0.535,0.5355,0.5339,0.5331,0.535,0.5318,0.5327,0.5337,0.5333,0.5332,0.5396,0.5371,0.5398,0.544,0.5458,0.5466,0.5473,0.5496,0.5504,0.5402,0.5402,0.5403,0,0.5408,0.5423,0.5395,0.541,0.5411,0.5373,0.5395,0.5391,0.5384,0.5385,0.5365,0.5378,0.537,0.5396,0.5412,0.5413,0.5418,0.5399,0.5467,0.5474,0.548,0.5501,0.551,0.5406,0.5405,0.5405,0.5405,0,0.5473,0.5484,0.5503,0.5497,0.55,0.5519,0.5494,0.5501,0.5482,0.5468,0.5488,0.5477,0.5478,0.5483,0.5465,0.5508,0.5497,0.5473,0.5437,0.5494,0.5513,0.5521,0.5411,0.5409,0.5408,0.5408,0,0,0.5569,0.5549,0.5556,0.5554,0.5541,0.5549,0.5567,0.5568,0.5574,0.5571,0.5585,0.5595,0.5573,0.5572,0.5553,0.5569,0.562,0.5543,0.5542,0.5557,0.5667,0.5685,0.5695,0.5604,0.5606,0.5607,0.5668,0,0.5629,0.5657,0.5634,0.5667,0.5677,0.5642,0.5657,0.5652,0.564,0.5647,0.5633,0.5641,0.5611,0.5611,0.5625,0.5611,0.5642,0.5607,0.5617,0.5618,0.5619,0.5705,0.5723,0.5781,0.5675,0.5677,0.5677,0,0.5702,0.5702,0.5736,0.5723,0.5726,0.574,0.574,0.5747,0.5741,0.5731,0.5731,0.5708,0.5724,0.5691,0.5713,0.569,0.5693,0.5687,0.5689,0.5688,0.565,0.5706,0.5799,0.5808,0.5689,0.5688,0.5687,0,0.5768,0.5777,0.5799,0.5797,0.5782,0.5793,0.5787,0.5779,0.5782,0.5782,0.5784,0.5786,0.5787,0.579,0.5768,0.5746,0.5794,0.5758,0.5786,0.5787,0.5797,0.5797,0.5891,0.5801,0.58,0.58,0.58,0,0.5836,0.5858,0.5828,0.5841,0.5866,0.5839,0.5864,0.5855,0.5848,0.5859,0.5829,0.584,0.5812,0.582,0.5804,0.5825,0.5826,0.5819,0.5814,0.5821,0.5822,0.5822,0.5817,0.5802,0.5802,0.5802,0.5801,0,0.5913,0.5894,0.5915,0.59,0.5897,0.5915,0.5902,0.5914,0.59,0.5915,0.5917,0.5896,0.5904,0.5884,0.5889,0.5878,0.5909,0.5898,0.5911,0.5907,0.5936,0.5934,0.6034,0.6046,0.5948,0.5949,0.595,0,0.5957,0.5974,0.5961,0.5966,0.5962,0.5971,0.5974,0.595,0.5954,0.5949,0.5961,0.5968,0.5971,0.5986,0.5971,0.5976,0.5964,0.5999,0.5964,0.5971,0.5964,0.5963,0.5965,0.6006,0.6007,0.6008,0.6009,0,0.6038,0.6028,0.6034,0.6037,0.6041,0.6042,0.6041,0.6047,0.6021,0.6028,0.6036,0.6039,0.6045,0.6051,0.6052,0.6047,0.6024,0.602,0.6027,0.6033,0.604,0.6037,0.593,0.6018,0.6017,0.6016,0.6016,0.6015,0.61,0.6113,0.6106,0.6113,0.611,0.611,0.6121,0.6109,0.6116,0.6119,0.6105,0.6117,0.6111,0.611,0.6107,0.6116,0.61,0.611,0.6112,0.6114,0.6119,0.604,0.6116,0.6116,0.6116,0.6115,0.6115,0,0.6178,0.6173,0.618,0.618,0.6186,0.6165,0.6163,0.6169,0.618,0.6177,0.6181,0.6192,0.6198,0.6185,0.6189,0.6199,0.6189,0.6201,0.62,0.6199,0.6133,0.6127,0.621,0.621,0.621,0.621,0.621,0.621,0.622,0.6241,0.6231,0.6251,0.6245,0.6256,0.6257,0.6257,0.6255,0.6268,0.6273,0.6265,0.6258,0.6262,0.6267,0.6263,0.6266,0.6282,0.6274,0.6213,0.6204,0.6195,0.6189,0.6283,0.6283,0.6339,0.634,0.634]},{"header":{"parameterUnit":"m.s-1","parameterCategory":1,"la1":30.2991,"la2":30.254,"lo1":-89.0895,"lo2":-89.0444,"dy":0.0017,"dx":0.0017,"nx":28,"ny":28,"refTime":"2024-05-20T09:00:00:Z","depth":0,"parameterNumber":3,"parameterNumberName":"V-component_of_WINDS"},"data":[0,0,0,0,0,0,0,0,0,0,0,0,0,0,0,0,0,0,0,0,0,0,0,0,0,0,0,0,0,0,0,0,0,0,0,0,0,0,0,0,0,0,0,0,0,0,0,0,0,0,0,0,0,0,0,0,0,0,-1.3066,-1.3067,0,-1.3156,-1.3157,-1.3158,-1.3196,-1.3196,-1.3196,-1.3196,-1.3285,-1.3288,-1.329,0,0,0,0,0,0,0,0,0,0,0,0,0,-1.2924,-1.2926,-1.3066,-1.3067,-1.3068,-1.3156,-1.3157,-1.3159,-1.3196,-1.3196,-1.3196,-1.3196,-1.3285,-1.3288,-1.3291,0,0,0,0,0,0,0,0,0,0,0,0,0,-1.2997,-1.2927,-1.3065,-1.3097,-1.3101,-1.3156,-1.3157,-1.3159,-1.3196,-1.3196,-1.3196,-1.3196,-1.3284,-1.3287,-1.3291,-1.332,0,0,-1.3303,-1.3304,0,0,0,0,0,0,0,0,-1.2992,-1.3002,-1.3092,-1.3095,-1.31,-1.3165,-1.314,-1.3213,-1.3196,-1.316,-1.3196,-1.3195,-1.3245,-1.3252,-1.327,-1.3324,-1.3328,-1.3303,-1.3305,-1.3307,-1.3308,0,0,0,0,0,0,0,-1.2987,-1.2998,-1.3101,-1.3093,-1.3098,-1.3107,-1.3117,-1.3154,-1.3203,-1.3163,-1.3166,-1.3177,-1.3247,-1.3266,-1.3272,-1.3329,-1.3303,-1.3306,-1.3309,-1.331,-1.3413,-1.3414,0,0,0,0,0,0,-1.2977,-1.2994,-1.3099,-1.3104,-1.3044,-1.3109,-1.3121,-1.3144,-1.3203,-1.3211,-1.3177,-1.3178,-1.3259,-1.3268,-1.3275,-1.3314,-1.3307,-1.3311,-1.3313,-1.3413,-1.3413,-1.3414,0,0,0,0,0,0,-1.2974,-1.2986,-1.3095,-1.305,-1.3064,-1.3112,-1.3138,-1.3146,-1.3165,-1.3213,-1.3221,-1.3187,-1.326,-1.327,-1.3309,-1.3317,-1.3312,-1.3316,-1.3412,-1.3413,-1.3413,-1.339,0,0,0,0,0,0,-1.297,-1.2985,-1.2997,-1.305,-1.3067,-1.3127,-1.3139,-1.3148,-1.3171,-1.3174,-1.3225,-1.3233,-1.326,-1.3303,-1.3313,-1.3323,-1.3319,-1.3412,-1.3412,-1.3413,-1.3391,-1.339,-1.339,0,0,0,0,0,-1.2965,-1.2985,-1.2997,-1.3009,-1.3082,-1.3128,-1.3137,-1.3169,-1.3172,-1.3184,-1.3215,-1.3231,-1.3315,-1.3307,-1.3318,-1.3329,-1.3411,-1.3412,-1.3413,-1.3391,-1.339,-1.339,0,0,0,0,0,0,-1.293,-1.2993,-1.3006,-1.3045,-1.3081,-1.3134,-1.315,-1.3168,-1.3203,-1.3203,-1.3241,-1.3252,-1.3288,-1.3313,-1.3302,-1.3361,-1.3364,-1.3368,-1.3343,-1.3343,-1.3343,-1.3336,-1.3322,0,0,0,0,0,-1.2927,-1.296,-1.3013,-1.3041,-1.3059,-1.3101,-1.3122,-1.3144,-1.3183,-1.3198,-1.3232,-1.3268,-1.3302,-1.3324,-1.3359,-1.3394,-1.3406,-1.3408,-1.3407,-1.3407,-1.3409,-1.3431,-1.3433,-1.3417,-1.3417,-1.3417,0,0,-1.2921,-1.2959,-1.2977,-1.3036,-1.3066,-1.3099,-1.3114,-1.3147,-1.3172,-1.3202,-1.3242,-1.3268,-1.3311,-1.3349,-1.3367,-1.337,-1.3416,-1.3408,-1.3407,-1.341,-1.3432,-1.3434,-1.3435,-1.3418,-1.3418,-1.3417,0,0,-1.2927,-1.2959,-1.2987,-1.3018,-1.3065,-1.3093,-1.31,-1.3151,-1.317,-1.3211,-1.3235,-1.3265,-1.3323,-1.3353,-1.3376,-1.3395,-1.3411,-1.3405,-1.3403,-1.3424,-1.3425,-1.3427,-1.3434,-1.3436,-1.3407,-1.3407,-1.3407,0,-1.2913,-1.2964,-1.2999,-1.3032,-1.3057,-1.3089,-1.3118,-1.3146,-1.32,-1.3217,-1.322,-1.3296,-1.3326,-1.3372,-1.3377,-1.3394,-1.3404,-1.3399,-1.3422,-1.3424,-1.3426,-1.3433,-1.3436,-1.3406,-1.3407,-1.3407,-1.3407,0,-1.2945,-1.298,-1.2997,-1.3051,-1.3078,-1.3109,-1.3149,-1.3172,-1.3192,-1.322,-1.3262,-1.33,-1.3344,-1.3356,-1.3375,-1.3406,-1.3406,-1.3415,-1.342,-1.3426,-1.3434,-1.3437,-1.3405,-1.3405,-1.3406,-1.3406,0,0,-1.2929,-1.3005,-1.3011,-1.3036,-1.3091,-1.3119,-1.3151,-1.3195,-1.3215,-1.3252,-1.328,-1.333,-1.334,-1.3365,-1.3388,-1.3407,-1.3421,-1.3414,-1.3416,-1.3414,-1.3457,-1.345,-1.3453,-1.3432,-1.3433,-1.3433,-1.3454,0,-1.2943,-1.3003,-1.3037,-1.3084,-1.3117,-1.3148,-1.3177,-1.3213,-1.324,-1.3272,-1.3302,-1.3338,-1.3347,-1.3363,-1.3383,-1.3415,-1.343,-1.3414,-1.3459,-1.346,-1.3447,-1.3457,-1.3449,-1.3467,-1.3457,-1.3458,-1.3458,0,-1.2966,-1.3005,-1.3055,-1.3108,-1.3123,-1.3148,-1.3192,-1.3222,-1.3264,-1.3283,-1.3313,-1.3337,-1.3372,-1.3374,-1.3424,-1.3412,-1.3433,-1.3451,-1.3453,-1.3458,-1.3459,-1.3463,-1.3473,-1.3476,-1.3463,-1.3463,-1.3463,0,-1.295,-1.3015,-1.3054,-1.3075,-1.3137,-1.3154,-1.3181,-1.3223,-1.3248,-1.3286,-1.3303,-1.3344,-1.3367,-1.3398,-1.3432,-1.343,-1.3479,-1.3483,-1.3495,-1.3494,-1.3503,-1.3502,-1.3517,-1.3516,-1.3516,-1.3516,-1.3516,0,-1.2961,-1.2991,-1.3048,-1.3072,-1.3106,-1.3145,-1.3178,-1.3207,-1.3245,-1.3274,-1.3303,-1.3331,-1.3374,-1.3407,-1.3433,-1.3471,-1.348,-1.3497,-1.3503,-1.3494,-1.3492,-1.3508,-1.3507,-1.3517,-1.3517,-1.3517,-1.3517,0,-1.2949,-1.2989,-1.3034,-1.309,-1.3105,-1.3128,-1.3176,-1.32,-1.323,-1.3267,-1.3278,-1.3325,-1.3365,-1.3402,-1.3455,-1.3473,-1.3511,-1.352,-1.3497,-1.3501,-1.3511,-1.351,-1.3537,-1.3542,-1.3537,-1.3537,-1.3537,0,-1.2954,-1.2978,-1.3038,-1.3061,-1.3087,-1.3123,-1.315,-1.3189,-1.3215,-1.3267,-1.3285,-1.3328,-1.3364,-1.3426,-1.3464,-1.3505,-1.3515,-1.3522,-1.3521,-1.3512,-1.3516,-1.3514,-1.3517,-1.3521,-1.3521,-1.3521,-1.3521,0,-1.2958,-1.2977,-1.3014,-1.3059,-1.309,-1.3127,-1.3164,-1.3181,-1.3228,-1.3256,-1.3298,-1.3327,-1.3382,-1.3424,-1.347,-1.3497,-1.3517,-1.3521,-1.3526,-1.3516,-1.3503,-1.3511,-1.3496,-1.352,-1.352,-1.352,-1.352,-1.352,-1.2955,-1.2978,-1.3024,-1.3065,-1.3099,-1.3134,-1.316,-1.3194,-1.323,-1.328,-1.3301,-1.3344,-1.3387,-1.3451,-1.3478,-1.3512,-1.3516,-1.3523,-1.3525,-1.3526,-1.3524,-1.3498,-1.352,-1.352,-1.352,-1.352,-1.352,0,-1.2961,-1.2993,-1.303,-1.3083,-1.3116,-1.3133,-1.3177,-1.3202,-1.324,-1.328,-1.3315,-1.3365,-1.3406,-1.3448,-1.3492,-1.3511,-1.3522,-1.3522,-1.352,-1.3526,-1.3518,-1.3509,-1.3513,-1.3513,-1.3513,-1.3513,-1.3513,-1.3513,-1.2967,-1.3008,-1.3033,-1.3091,-1.3122,-1.3166,-1.3189,-1.3222,-1.3254,-1.3308,-1.3343,-1.3371,-1.3412,-1.3459,-1.3498,-1.351,-1.3525,-1.3522,-1.3536,-1.3527,-1.3527,-1.3527,-1.3519,-1.3525,-1.3525,-1.3542,-1.3542,-1.3542]}]]